Satellite-Ground Cal/Val Region Overpasses Predictions

Prediction of Satellite NPP Overpassing Cal/Val Region: PacNW

Region Location: (Latitude: 10.00, Longitude: 139.50) to (Latitude: 22.70, Longitude: 165.60).

Table of predicted overpasses for the next 14.0 days since TLE Epoch: 6/5/2021
Interval Starting Time Starting Location Ending Time Ending Location
1 06/05/2021 02:20:03 ( 10.40, 164.57) 06/05/2021 02:23:32 ( 22.67, 161.65)
2 06/05/2021 14:51:50 ( 22.69, 161.90) 06/05/2021 14:55:26 ( 10.01, 158.88)
3 06/06/2021 03:42:26 ( 10.04, 144.04) 06/06/2021 03:46:01 ( 22.66, 141.03)
4 06/06/2021 14:34:02 ( 18.36, 165.59) 06/06/2021 14:36:24 ( 10.03, 163.64)
5 06/06/2021 16:14:19 ( 22.64, 141.27) 06/06/2021 16:16:23 ( 15.37, 139.50)
6 06/07/2021 03:23:24 ( 10.02, 148.80) 06/07/2021 03:26:59 ( 22.64, 145.79)
7 06/07/2021 15:55:18 ( 22.66, 146.03) 06/07/2021 15:58:53 ( 10.04, 143.02)
8 06/08/2021 03:04:23 ( 10.01, 153.55) 06/08/2021 03:07:59 ( 22.69, 150.54)
9 06/08/2021 15:36:16 ( 22.67, 150.79) 06/08/2021 15:39:51 ( 10.05, 147.78)
10 06/09/2021 02:45:22 ( 10.05, 158.30) 06/09/2021 02:48:57 ( 22.67, 155.30)
11 06/09/2021 15:17:15 ( 22.69, 155.55) 06/09/2021 15:20:51 ( 10.01, 152.53)
12 06/10/2021 02:26:21 ( 10.04, 163.06) 06/10/2021 02:29:56 ( 22.66, 160.05)
13 06/10/2021 14:58:15 ( 22.64, 160.29) 06/10/2021 15:01:50 ( 10.02, 157.29)
14 06/11/2021 02:10:00 ( 19.48, 165.60) 06/11/2021 02:10:54 ( 22.65, 164.81)
15 06/11/2021 03:48:49 ( 10.03, 142.44) 06/11/2021 03:52:19 ( 22.36, 139.51)
16 06/11/2021 14:39:13 ( 22.66, 165.05) 06/11/2021 14:42:48 ( 10.04, 162.05)
17 06/11/2021 16:20:43 ( 22.65, 139.68) 06/11/2021 16:20:55 ( 21.95, 139.50)
18 06/12/2021 03:29:48 ( 10.01, 147.20) 06/12/2021 03:33:24 ( 22.70, 144.18)
19 06/12/2021 16:01:42 ( 22.67, 144.44) 06/12/2021 16:05:17 ( 10.05, 141.43)
20 06/13/2021 03:10:46 ( 10.00, 151.96) 06/13/2021 03:14:22 ( 22.68, 148.94)
21 06/13/2021 15:42:40 ( 22.68, 149.20) 06/13/2021 15:46:16 ( 10.00, 146.18)
22 06/14/2021 02:51:46 ( 10.05, 156.71) 06/14/2021 02:55:21 ( 22.67, 153.70)
23 06/14/2021 15:23:39 ( 22.70, 153.95) 06/14/2021 15:27:15 ( 10.02, 150.94)
24 06/15/2021 02:32:44 ( 10.04, 161.47) 06/15/2021 02:36:19 ( 22.66, 158.46)
25 06/15/2021 15:04:38 ( 22.65, 158.70) 06/15/2021 15:08:13 ( 10.03, 155.70)
26 06/16/2021 02:14:30 ( 12.79, 165.59) 06/16/2021 02:17:18 ( 22.65, 163.22)
27 06/16/2021 03:55:13 ( 10.03, 140.85) 06/16/2021 03:56:51 ( 15.78, 139.51)
28 06/16/2021 14:45:37 ( 22.66, 163.46) 06/16/2021 14:49:12 ( 10.04, 160.45)
29 06/17/2021 03:36:12 ( 10.02, 145.61) 06/17/2021 03:39:47 ( 22.70, 142.59)
30 06/17/2021 14:29:42 ( 11.70, 165.59) 06/17/2021 14:30:10 ( 10.06, 165.21)
31 06/17/2021 16:08:05 ( 22.67, 142.84) 06/17/2021 16:11:40 ( 10.05, 139.84)
32 06/18/2021 03:17:10 ( 10.00, 150.37) 06/18/2021 03:20:46 ( 22.69, 147.35)
